Regional Weather Roundup
Issued by NWS Upton, NY

Current Version | Previous Version | Graphics & Text | Print | Product List | Glossary Off
Versions: 1 2 3 4 5 6 7 8 9 10 11 12 13 14 15 16 17 18 19 20 21 22 23 24 25 26 27 28 29 30 31 32 33 34 35 36 37 38 39 40 41 42 43 44 45 46 47 48 49 50

000
ASUS41 KOKX 261205
RWROKX

Regional Weather Roundup
National Weather Service New York NY
800 AM EDT SAT MAY 26 2018

Note: "FAIR" indicates few or no clouds below 12,000 feet with no
significant weather and/or obstructions to visibility.

NYZ071-072-176-178-NJZ106-104-261300-
New York City Metro Area

CITY           SKY/WX    TMP DP  RH WIND       PRES   REMARKS
Central Park   FAIR      73  65  75 VRB5      29.85S
Bronx Bot Gard   N/A     75  63  64 SW8       29.85S
Bronx Lehman C   N/A     75  64  69 SW7         N/A
LaGuardia Arpt FAIR      77  65  66 SW10      29.82S
Queens College   N/A     75  64  69 W9          N/A
Kennedy Intl   FAIR      72  66  81 SW10      29.84S
Breezy Point     N/A     70 N/A N/A W5          N/A
Brooklyn Coll    N/A     73  64  73 S6          N/A
Staten Island    N/A     73  64  73 SW6         N/A
Newark/Liberty FAIR      76  65  68 SW14      29.83S
Teterboro      FAIR      76  67  73 SW7       29.82R
$$

NYZ177-179-078>081-261300-
Long Island New York

CITY           SKY/WX    TMP DP  RH WIND       PRES   REMARKS
Jones Beach      N/A     64 N/A N/A W5          N/A
Wantagh          N/A     70  64  83 SW6         N/A
Hempstead        N/A     73  66  78 SW9       29.86S
Matinecock Pt    N/A     72 N/A N/A SW12        N/A
Farmingdale    FAIR      72  64  76 SW7       29.83S
MacArthur/ISP  FAIR      72  65  78 SW7       29.83R
Stony Brook      N/A     73  64  73 SW3         N/A
Shirley        FAIR      70  64  81 SW9       29.84R
Mt Sinai Harb    N/A     73 N/A N/A SW6         N/A
Westhampton    FAIR      69  60  73 SW9       29.85S
East Hampton   FAIR      69  62  78 W6        29.83R
Southold         N/A     73  64  73 W7          N/A
Montauk          N/A     70  62  76 VRB5      29.83R
$$

NYZ052-065-067-261300-
Hudson Valley

CITY           SKY/WX    TMP DP  RH WIND       PRES   REMARKS
White Plains   FAIR      74  66  76 W5        29.83R
Larchmont Harb   N/A     72 N/A N/A S12         N/A
Croton On Huds   N/A     73 N/A N/A S5          N/A
Somers           N/A     75  64  69 W2          N/A
Brewster         N/A     72  64  78 S1          N/A
Newburgh       SUNNY     72  66  83 W6        29.84R
Montgomery     FAIR      72  65  78 SW10      29.82S
Otisville        N/A     72  64  78 W6          N/A
Warwick          N/A     73  68  83 W7          N/A
Suffern          N/A     73  66  78 SW1         N/A
Poughkeepsie   FAIR      73  63  70 SW7       29.81R
Albany         PTSUNNY   71  57  61 S7        29.79R
$$

NJZ001-105-106-008-010-013-015-019>022-104-261300-
New Jersey

CITY           SKY/WX    TMP DP  RH WIND       PRES   REMARKS
Newark/Liberty FAIR      76  65  68 SW14      29.83S
Teterboro      FAIR      76  67  73 SW7       29.82R
Caldwell       FAIR      74  67  78 W3        29.83S
Somerville     FAIR      73  68  84 CALM      29.83S
Linden         FAIR      74  64  72 W7        29.84R
Perth Amboy      N/A     72 N/A N/A W12         N/A
Sussex         FAIR      71  66  84 S6        29.84S
Andover          N/A     72  67  84 S3        29.85S
Trenton        FAIR      74  66  76 SW8       29.85R
Millville      FAIR     N/A N/A N/A SW8       29.87S
Atlantic City  FAIR      76  69  79 SW9       29.87S
Wrightstown    FAIR      74  66  75 SW9       29.84
Toms River     FAIR      76  67  73 W14       29.87R
Belmar         FAIR      74  66  76 SW12      29.86S
$$

PAZ047>061-062-071-261300-
Eastern Pennsylvania

CITY           SKY/WX    TMP DP  RH WIND       PRES   REMARKS
Philadelphia   PTSUNNY   74  66  76 SW8       29.86S
Allentown      PTSUNNY   74  66  76 W6        29.86R
Scranton       FAIR      72  65  78 SW5       29.86S
$$

CTZ002-004>006-009-010-012-RIZ004-006-007-MAZ004-011-015-261300-
Southern New England

 In CT

CITY           SKY/WX    TMP DP  RH WIND       PRES   REMARKS
Bradley Intl   FAIR      74  63  68 S6        29.80R
Hartford       FAIR      73  65  75 S6        29.79S
Danbury        FAIR      73  66  78 W7        29.84S
Wtrbury/Oxford FAIR      72  65  78 VRB6      29.84S
Norwalk Harbor   N/A     66 N/A N/A SW10        N/A
Bridgeport     FAIR      68  61  78 SW7       29.82R
Meriden        FAIR      72  64  76 SE3       29.81S
New Haven      FAIR      72  65  78 W8        29.81S
Chester        FAIR      73  66  78 W7G13     29.82S
Groton         FAIR      70  64  81 SW6       29.81R
Willimantic    FAIR      71  63  75 S3        29.81R

 In RI

CITY           SKY/WX    TMP DP  RH WIND       PRES   REMARKS
Providence     FAIR      74  64  71 W8        29.80R
Block Island   FAIR      61  58  90 SW18      29.83R
Westerly       FAIR      71  64  78 W12G17    29.82S

In MA

CITY           SKY/WX    TMP DP  RH WIND       PRES   REMARKS
Boston         FAIR      74  60  61 SW15      29.75R
Worcester      FAIR      71  59  65 W15       29.80R
Westfield      FAIR      72  63  73 S5        29.79R
Provincetown   FAIR      64  59  83 SW10      29.77R
Nantucket      FAIR      61  58  90 SW17      29.82R
$$

ANZ330-335-338-340-345-350-353-355-261300-
Coastal Marine Observations


STATION/POSITION TIME  SKY/WX   TEMP    WIND        PRES    VSBY  WAVE
                                AIR SEA DIR/SP/G                  HT/PER
                 (UTC)          (F)     (DEG/KT/KT) (MB)    (MI)  (FT/S)
NY Harb Entrance 1150            63 59  200/  8/ 10 1010.4          2/ 8
20 S Fire Island 1150            59 53  220/ 12/ 14 1010.5          3/ 6
23 SSW Montauk P 1150            58 54  230/ 16/ 16 1010.4          4/ 6
15 E Barnegat Li 1130               59                N/A           3/ 5
Hudson Canyon    1150            58 53  220/ 14/ 16 1011.4          4/ 5
Kings Point      1124            72 60  240/  4/  5 1011.0
Execution Rocks  NOT AVBL
Western LI Sound 1120            66     230/  6/  8   N/A           0
Central LI Sound 1130            62     300/  4/  6   N/A           1
Robbins Reef     1136            72     240/  6/  9 1010.7
$$


>>>>>>>>>>>>>>>>>>>>>>>>>>>> KEY <<<<<<<<<<<<<<<<<<<<<<<<<<<
>                                                          <
>     SKY/WX - Sky Condition/Present Weather               <
>     TMP    - Temperature in Fahrenheit                   <
>     DP     - Dew Point in Fahrenheit                     <
>     RH     - Relative Humidity in Percent                <
>     WIND   - Direction (from) and Speed in MPH           <
>     PRES   - Mean Sea Level Pressure (inches of Hg)      <
>     WCI    - Wind Chill Index                            <
>     VSB    - Visibility in Miles                         <
>     HX     - Heat Index                                  <
>     TC     - Temperature in Celsius                      <
>     VRB    - Varibale Wind Direction                     <
>                                                          <
>>>>>>>>>>>>>>>>>>>>>>>>>>>> KEY <<<<<<<<<<<<<<<<<<<<<<<<<<<



USA.gov is the U.S. government's official web portal to all federal, state and local government web resources and services.